Retour au catalogue

SL-14 R/B

ActifPO
NORAD 19337·ROCKET BODY·🇷🇺 Russia

Lancé Jul 26, 1988 depuis Plesetsk Cosmodrome

Loading…

Prochains Passages (prochaines 24 heures)

TLE

FraisSource: Space-Track

Époque: Sep 14, 2026, 18:47 UTC

1 19337U 88064B   26257.78322799 -.00000066  00000-0 -20336-3 0  9999
2 19337  82.5422 270.4279 0016005  19.2083 154.3400 13.17275838833538

Suivez SL-14 R/B en temps réel avec AllMySat

Download on the App Store